Time,TemperatureF,DewpointF,PressureIn,WindDirection,WindDirectionDegrees,WindSpeedMPH,WindSpeedGustMPH,Humidity,HourlyPrecipIn,Conditions,Clouds,dailyrainin,SoftwareType,DateUTC
2013-03-09 00:10:00,32.1,26.0,30.34,SE,142,3.0,9.0,78,0.00,,,0.00,weatherlink.com 1.10,2013-03-09 06:10:00,
2013-03-09 00:25:00,31.9,26.0,30.33,ESE,112,3.0,7.0,79,0.00,,,0.00,weatherlink.com 1.10,2013-03-09 06:25:00,
2013-03-09 00:40:00,31.5,26.0,30.32,ESE,104,7.0,10.0,80,0.00,,,0.00,weatherlink.com 1.10,2013-03-09 06:40:00,
2013-03-09 00:55:00,31.6,26.0,30.32,SE,144,4.0,9.0,80,0.00,,,0.00,weatherlink.com 1.10,2013-03-09 06:55:00,
2013-03-09 01:10:00,31.4,26.0,30.31,ESE,122,4.0,6.0,80,0.00,,,0.00,weatherlink.com 1.10,2013-03-09 07:10:00,
2013-03-09 01:25:00,31.4,26.0,30.31,ESE,113,2.0,8.0,81,0.00,,,0.00,weatherlink.com 1.10,2013-03-09 07:25:00,
2013-03-09 01:40:00,32.2,26.0,30.31,SSE,154,4.0,8.0,79,0.00,,,0.00,weatherlink.com 1.10,2013-03-09 07:40:00,
2013-03-09 01:55:00,32.1,26.0,30.30,ESE,109,4.0,8.0,79,0.00,,,0.00,weatherlink.com 1.10,2013-03-09 07:55:00,
2013-03-09 02:11:00,32.1,27.0,30.28,ESE,120,5.0,10.0,80,0.00,,,0.00,weatherlink.com 1.10,2013-03-09 08:11:00,
2013-03-09 02:26:00,32.1,27.0,30.28,SE,137,5.0,11.0,80,0.00,,,0.00,weatherlink.com 1.10,2013-03-09 08:26:00,
2013-03-09 02:41:00,32.1,27.0,30.27,SE,144,5.0,10.0,80,0.00,,,0.00,weatherlink.com 1.10,2013-03-09 08:41:00,
2013-03-09 02:56:00,31.9,26.0,30.26,SE,140,7.0,9.0,80,0.00,,,0.00,weatherlink.com 1.10,2013-03-09 08:56:00,
2013-03-09 03:11:00,31.7,27.0,30.26,SSE,163,5.0,9.0,81,0.00,,,0.00,weatherlink.com 1.10,2013-03-09 09:11:00,
2013-03-09 03:26:00,31.9,27.0,30.26,SSE,155,3.0,5.0,81,0.00,,,0.00,weatherlink.com 1.10,2013-03-09 09:26:00,
2013-03-09 03:41:00,32.2,27.0,30.24,SE,125,4.0,9.0,81,0.00,,,0.00,weatherlink.com 1.10,2013-03-09 09:41:00,
2013-03-09 03:56:00,32.4,27.0,30.25,SE,130,3.0,8.0,81,0.00,,,0.00,weatherlink.com 1.10,2013-03-09 09:56:00,
2013-03-09 04:11:00,32.7,28.0,30.25,SSE,157,9.0,11.0,81,0.00,,,0.00,weatherlink.com 1.10,2013-03-09 10:11:00,
2013-03-09 04:26:00,33.1,28.0,30.25,SE,142,6.0,12.0,80,0.00,,,0.00,weatherlink.com 1.10,2013-03-09 10:26:00,
2013-03-09 04:41:00,33.1,28.0,30.24,SE,145,13.0,13.0,81,0.00,,,0.00,weatherlink.com 1.10,2013-03-09 10:41:00,
2013-03-09 04:56:00,33.2,28.0,30.25,SE,133,5.0,14.0,81,0.00,,,0.00,weatherlink.com 1.10,2013-03-09 10:56:00,
2013-03-09 05:11:00,33.4,28.0,30.25,SSE,149,2.0,14.0,81,0.00,,,0.00,weatherlink.com 1.10,2013-03-09 11:11:00,
2013-03-09 05:26:00,33.5,28.0,30.25,SE,144,7.0,9.0,81,0.00,,,0.00,weatherlink.com 1.10,2013-03-09 11:26:00,
2013-03-09 05:41:00,33.4,29.0,30.24,SE,133,4.0,13.0,82,0.00,,,0.00,weatherlink.com 1.10,2013-03-09 11:41:00,
2013-03-09 05:56:00,33.3,29.0,30.23,SE,124,8.0,11.0,83,0.00,,,0.00,weatherlink.com 1.10,2013-03-09 11:56:00,
2013-03-09 06:11:00,33.3,29.0,30.23,SE,129,6.0,10.0,85,0.00,,,0.00,weatherlink.com 1.10,2013-03-09 12:11:00,
2013-03-09 06:26:00,33.4,30.0,30.23,SE,146,5.0,8.0,86,0.00,,,0.00,weatherlink.com 1.10,2013-03-09 12:26:00,
2013-03-09 06:41:00,33.7,30.0,30.22,South,189,11.0,15.0,87,0.00,,,0.00,weatherlink.com 1.10,2013-03-09 12:41:00,
2013-03-09 06:56:00,33.8,31.0,30.22,SSE,158,6.0,13.0,89,0.00,,,0.00,weatherlink.com 1.10,2013-03-09 12:56:00,
2013-03-09 07:11:00,33.8,31.0,30.22,SSE,148,7.0,9.0,90,0.00,,,0.00,weatherlink.com 1.10,2013-03-09 13:11:00,
2013-03-09 07:26:00,33.8,32.0,30.21,SE,144,4.0,11.0,91,0.00,,,0.00,weatherlink.com 1.10,2013-03-09 13:26:00,
2013-03-09 07:41:00,34.1,32.0,30.20,SE,143,8.0,10.0,91,0.00,,,0.00,weatherlink.com 1.10,2013-03-09 13:41:00,
2013-03-09 07:56:00,34.2,32.0,30.19,SSE,153,7.0,14.0,91,0.00,,,0.00,weatherlink.com 1.10,2013-03-09 13:56:00,
2013-03-09 08:11:00,34.5,32.0,30.20,SSE,150,2.0,10.0,91,0.00,,,0.00,weatherlink.com 1.10,2013-03-09 14:11:00,
2013-03-09 08:26:00,35.0,32.0,30.21,SSE,152,3.0,8.0,90,0.07,,,0.07,weatherlink.com 1.10,2013-03-09 14:26:00,
2013-03-09 08:41:00,35.2,32.0,30.19,ESE,113,7.0,11.0,89,0.07,,,0.07,weatherlink.com 1.10,2013-03-09 14:41:00,
2013-03-09 08:56:00,35.6,32.0,30.18,SSE,153,8.0,11.0,87,0.07,,,0.07,weatherlink.com 1.10,2013-03-09 14:56:00,
2013-03-09 09:11:00,35.9,32.0,30.17,SE,136,7.0,11.0,86,0.07,,,0.07,weatherlink.com 1.10,2013-03-09 15:11:00,
2013-03-09 09:26:00,36.0,32.0,30.15,SSE,153,12.0,16.0,84,0.00,,,0.07,weatherlink.com 1.10,2013-03-09 15:26:00,
2013-03-09 09:41:00,36.4,32.0,30.15,SSE,163,9.0,14.0,84,0.00,,,0.07,weatherlink.com 1.10,2013-03-09 15:41:00,
2013-03-09 09:56:00,36.9,32.0,30.14,SSE,163,3.0,12.0,82,0.00,,,0.07,weatherlink.com 1.10,2013-03-09 15:56:00,
2013-03-09 10:11:00,37.2,32.0,30.13,ESE,119,8.0,15.0,81,0.00,,,0.07,weatherlink.com 1.10,2013-03-09 16:11:00,
2013-03-09 10:26:00,37.3,32.0,30.13,SSE,167,7.0,11.0,81,0.00,,,0.07,weatherlink.com 1.10,2013-03-09 16:26:00,
2013-03-09 10:41:00,36.9,32.0,30.11,SE,138,7.0,14.0,82,0.00,,,0.07,weatherlink.com 1.10,2013-03-09 16:41:00,
2013-03-09 10:56:00,36.8,32.0,30.10,SE,142,5.0,13.0,82,0.00,,,0.07,weatherlink.com 1.10,2013-03-09 16:56:00,
2013-03-09 11:11:00,37.0,32.0,30.10,SSE,155,6.0,12.0,82,0.00,,,0.07,weatherlink.com 1.10,2013-03-09 17:11:00,
2013-03-09 11:26:00,37.6,32.0,30.09,SE,133,7.0,15.0,80,0.00,,,0.07,weatherlink.com 1.10,2013-03-09 17:26:00,
2013-03-09 11:42:00,38.1,32.0,30.08,East,90,5.0,14.0,79,0.00,,,0.07,weatherlink.com 1.10,2013-03-09 17:42:00,
2013-03-09 11:57:00,38.7,33.0,30.08,SSE,163,8.0,13.0,79,0.00,,,0.07,weatherlink.com 1.10,2013-03-09 17:57:00,
2013-03-09 12:12:00,39.2,33.0,30.06,SSE,157,6.0,9.0,77,0.00,,,0.07,weatherlink.com 1.10,2013-03-09 18:12:00,
2013-03-09 12:27:00,39.8,33.0,30.07,SSE,150,7.0,9.0,76,0.00,,,0.07,weatherlink.com 1.10,2013-03-09 18:27:00,
2013-03-09 12:42:00,39.5,33.0,30.06,SE,141,8.0,10.0,76,0.00,,,0.07,weatherlink.com 1.10,2013-03-09 18:42:00,
2013-03-09 12:57:00,39.6,32.0,30.05,SE,126,5.0,10.0,75,0.00,,,0.07,weatherlink.com 1.10,2013-03-09 18:57:00,
2013-03-09 13:12:00,39.8,32.0,30.04,SE,126,3.0,10.0,75,0.00,,,0.07,weatherlink.com 1.10,2013-03-09 19:12:00,
2013-03-09 13:27:00,39.8,32.0,30.03,South,191,4.0,9.0,75,0.00,,,0.07,weatherlink.com 1.10,2013-03-09 19:27:00,
2013-03-09 13:42:00,39.7,32.0,30.02,South,179,5.0,13.0,75,0.00,,,0.07,weatherlink.com 1.10,2013-03-09 19:42:00,
2013-03-09 13:57:00,39.6,33.0,30.01,SE,143,3.0,12.0,76,0.00,,,0.07,weatherlink.com 1.10,2013-03-09 19:57:00,
2013-03-09 14:12:00,39.7,33.0,29.99,SSE,158,5.0,11.0,76,0.00,,,0.07,weatherlink.com 1.10,2013-03-09 20:12:00,
2013-03-09 14:27:00,39.7,33.0,29.98,SSE,156,8.0,13.0,77,0.00,,,0.07,weatherlink.com 1.10,2013-03-09 20:27:00,
2013-03-09 14:42:00,39.7,33.0,29.98,South,181,3.0,14.0,77,0.00,,,0.07,weatherlink.com 1.10,2013-03-09 20:42:00,
2013-03-09 14:57:00,39.9,33.0,29.98,SSW,196,5.0,10.0,77,0.00,,,0.07,weatherlink.com 1.10,2013-03-09 20:57:00,
2013-03-09 15:12:00,39.9,33.0,29.97,SSE,165,3.0,9.0,77,0.00,,,0.07,weatherlink.com 1.10,2013-03-09 21:12:00,
2013-03-09 15:27:00,39.8,33.0,29.97,SSE,167,6.0,11.0,78,0.00,,,0.00,weatherlink.com 1.10,2013-03-09 21:27:00,
2013-03-09 15:42:00,39.5,34.0,29.96,SSE,157,6.0,13.0,80,0.00,,,0.00,weatherlink.com 1.10,2013-03-09 21:42:00,
2013-03-09 15:57:00,39.2,34.0,29.95,SE,136,4.0,12.0,80,0.00,,,0.00,weatherlink.com 1.10,2013-03-09 21:57:00,
2013-03-09 16:12:00,39.1,34.0,29.95,SSE,154,7.0,11.0,81,0.00,,,0.00,weatherlink.com 1.10,2013-03-09 22:12:00,
2013-03-09 16:27:00,38.8,34.0,29.93,SSE,150,5.0,12.0,83,0.00,,,0.00,weatherlink.com 1.10,2013-03-09 22:27:00,
2013-03-09 16:42:00,39.1,34.0,29.92,SE,128,5.0,12.0,83,0.00,,,0.00,weatherlink.com 1.10,2013-03-09 22:42:00,
2013-03-09 16:57:00,39.6,34.0,29.92,ESE,120,7.0,12.0,81,0.00,,,0.00,weatherlink.com 1.10,2013-03-09 22:57:00,
2013-03-09 17:14:00,40.0,34.0,29.91,SE,134,3.0,12.0,79,0.00,,,0.00,weatherlink.com 1.10,2013-03-09 23:14:00,
2013-03-09 17:27:00,40.1,34.0,29.90,SE,124,8.0,12.0,79,0.00,,,0.00,weatherlink.com 1.10,2013-03-09 23:27:00,
2013-03-09 17:42:00,40.1,34.0,29.90,SE,138,8.0,15.0,80,0.00,,,0.00,weatherlink.com 1.10,2013-03-09 23:42:00,
2013-03-09 17:57:00,40.3,34.0,29.90,SSE,153,5.0,12.0,79,0.00,,,0.00,weatherlink.com 1.10,2013-03-09 23:57:00,
2013-03-09 18:12:00,40.5,34.0,29.90,South,171,6.0,13.0,79,0.00,,,0.00,weatherlink.com 1.10,2013-03-10 00:12:00,
2013-03-09 18:27:00,40.9,35.0,29.90,SE,145,10.0,13.0,79,0.00,,,0.00,weatherlink.com 1.10,2013-03-10 00:27:00,
2013-03-09 18:42:00,41.1,35.0,29.89,SSE,148,10.0,14.0,78,0.00,,,0.00,weatherlink.com 1.10,2013-03-10 00:42:00,
2013-03-09 18:57:00,40.9,35.0,29.90,SE,134,9.0,12.0,79,0.00,,,0.00,weatherlink.com 1.10,2013-03-10 00:57:00,
2013-03-09 19:12:00,40.8,35.0,29.89,SE,139,9.0,14.0,79,0.00,,,0.00,weatherlink.com 1.10,2013-03-10 01:12:00,
2013-03-09 19:27:00,40.9,35.0,29.89,SSE,149,8.0,14.0,79,0.00,,,0.00,weatherlink.com 1.10,2013-03-10 01:27:00,
2013-03-09 19:42:00,40.8,35.0,29.89,SE,142,3.0,11.0,80,0.00,,,0.00,weatherlink.com 1.10,2013-03-10 01:42:00,
2013-03-09 19:58:00,40.7,35.0,29.89,SE,135,8.0,10.0,80,0.00,,,0.00,weatherlink.com 1.10,2013-03-10 01:58:00,
2013-03-09 20:13:00,40.9,35.0,29.88,SE,138,8.0,10.0,80,0.00,,,0.00,weatherlink.com 1.10,2013-03-10 02:13:00,
2013-03-09 20:28:00,40.9,35.0,29.89,SE,142,2.0,11.0,80,0.00,,,0.00,weatherlink.com 1.10,2013-03-10 02:28:00,
2013-03-09 20:43:00,41.4,35.0,29.89,SSE,162,5.0,9.0,79,0.00,,,0.00,weatherlink.com 1.10,2013-03-10 02:43:00,
2013-03-09 20:58:00,41.9,36.0,29.90,SE,142,4.0,9.0,78,0.00,,,0.00,weatherlink.com 1.10,2013-03-10 02:58:00,
2013-03-09 21:13:00,42.2,36.0,29.89,SE,132,3.0,6.0,78,0.00,,,0.00,weatherlink.com 1.10,2013-03-10 03:13:00,
2013-03-09 21:28:00,42.7,36.0,29.88,SE,142,7.0,10.0,77,0.00,,,0.00,weatherlink.com 1.10,2013-03-10 03:28:00,
2013-03-09 21:43:00,42.7,36.0,29.87,SSE,150,3.0,9.0,77,0.00,,,0.00,weatherlink.com 1.10,2013-03-10 03:43:00,
2013-03-09 21:58:00,42.7,36.0,29.88,SSE,150,3.0,8.0,77,0.00,,,0.00,weatherlink.com 1.10,2013-03-10 03:58:00,
2013-03-09 22:13:00,43.0,36.0,29.87,SSE,152,3.0,10.0,76,0.00,,,0.00,weatherlink.com 1.10,2013-03-10 04:13:00,
2013-03-09 22:28:00,43.4,36.0,29.86,SSE,155,4.0,13.0,76,0.00,,,0.00,weatherlink.com 1.10,2013-03-10 04:28:00,
2013-03-09 22:43:00,43.5,36.0,29.86,SSE,148,6.0,12.0,75,0.00,,,0.00,weatherlink.com 1.10,2013-03-10 04:43:00,
2013-03-09 22:58:00,43.4,36.0,29.86,SE,136,4.0,9.0,76,0.00,,,0.00,weatherlink.com 1.10,2013-03-10 04:58:00,
2013-03-09 23:13:00,43.3,36.0,29.85,SE,132,5.0,6.0,76,0.00,,,0.00,weatherlink.com 1.10,2013-03-10 05:13:00,
2013-03-09 23:28:00,43.3,36.0,29.84,SSE,148,3.0,9.0,76,0.00,,,0.00,weatherlink.com 1.10,2013-03-10 05:28:00,
2013-03-09 23:43:00,43.3,36.0,29.83,SSE,147,3.0,8.0,76,0.00,,,0.00,weatherlink.com 1.10,2013-03-10 05:43:00,
2013-03-09 23:58:00,43.6,37.0,29.82,SE,135,4.0,7.0,76,0.00,,,0.00,weatherlink.com 1.10,2013-03-10 05:58:00,